User: anonymous   Login
Location: Terra Rouge Observatory
(46.0000°N, 62.7500°W)
Time: 08:44:17
(UTC-03:00)
Language:

Landsat 5 - Orbit

View from above orbital plane
View from above orbital plane
View from above satellite
View from above satellite

Ground track
Ground track

The orbit data is extracted from the following two-line orbital elements,

1 14780U 84021A   18110.89090804 +.00000515 +00000-0 +53701-4 0  9995
2 14780 098.0652 234.3661 0089491 235.9578 123.3119 14.91703358346203
Epoch (UTC): 20 April 2018 21:22:54
Eccentricity: 0.0089491
inclination: 98.0652°
perigee height: 530 km
apogee height: 655 km
right ascension of ascending node: 234.3661°
argument of perigee: 235.9578°
revolutions per day: 14.91703358
mean anomaly at epoch: 123.3119°
orbit number at epoch: 34620

The dashed part of the orbit path shows where the satellite is in the earth's shadow,  

DLR